This is the latest recevied weather packets stored in our database for station/object HOWARD. If no packets are shown the sender has not sent any weather packets the latest 10 day(s).
| Time | Temp. | Humidity | Pressure | Rain* | Wind** | Luminosity | Snow |
|---|---|---|---|---|---|---|---|
| 1788464687 | 4.44° C | 74% | 1008.1 hPa | 0 mm | - | - | - |
| 1788464086 | 5.56° C | 70% | 1008.2 hPa | 0 mm | - | - | - |
| 1788463486 | 5° C | 71% | 1008.1 hPa | 0 mm | - | - | - |
| 1788462886 | 6.11° C | 76% | 1008.1 hPa | 0 mm | - | - | - |
| 1788462286 | 4.44° C | 73% | 1008.1 hPa | 0 mm | - | - | - |
| 1788461686 | 4.44° C | 73% | 1008.2 hPa | 0 mm | - | - | - |
| 1788461086 | 3.89° C | 75% | 1007.9 hPa | 0 mm | - | - | - |
| 1788460488 | 5° C | 75% | 1008.1 hPa | 0 mm | - | - | - |
| 1788459887 | 6.11° C | 74% | 1008.1 hPa | 0 mm | - | - | - |
| 1788459286 | 3.89° C | 78% | 1008.1 hPa | 0 mm | - | - | - |
| 1788458790 | 3.89° C | 78% | 1008 hPa | 0 mm | - | - | - |
| 1788458686 | 3.89° C | 78% | 1008 hPa | 0 mm | - | - | - |
| 1788458086 | 3.89° C | 78% | 1008 hPa | 0 mm | - | - | - |
| 1788457486 | 4.44° C | 81% | 1008 hPa | 0 mm | - | - | - |
| 1788456999 | 4.44° C | 82% | 1008 hPa | 0 mm | - | - | - |
| 1788456886 | 4.44° C | 82% | 1008 hPa | 0 mm | - | - | - |
| 1788456285 | 3.89° C | 84% | 1007.8 hPa | 0 mm | - | - | - |
| 1788455686 | 3.33° C | 85% | 1007.8 hPa | 0 mm | - | - | - |
| 1788455086 | 3.33° C | 84% | 1007.7 hPa | 0 mm | - | - | - |
| 1788454486 | 3.33° C | 82% | 1007.8 hPa | 0 mm | - | - | - |
| 1788453886 | 3.33° C | 82% | 1007.6 hPa | 0 mm | - | - | - |
| 1788453286 | 3.33° C | 83% | 1007.5 hPa | 0 mm | - | - | - |
| 1788452686 | 2.78° C | 87% | 1007.5 hPa | 0 mm | - | - | - |
| 1788452086 | 3.33° C | 88% | 1007.4 hPa | 0 mm | - | - | - |
| 1788451485 | 2.78° C | 88% | 1007.4 hPa | 0 mm | - | - | - |
* Rain latest hour (hover to see other rain measurements)
** Current wind speed in m/s (hover to see current wind gust speed)